Time,TemperatureF,DewpointF,PressureIn,WindDirection,WindDirectionDegrees,WindSpeedMPH,WindSpeedGustMPH,Humidity,HourlyPrecipIn,Conditions,Clouds,dailyrainin,SoftwareType,DateUTC
2013-06-02 00:02:00,66.6,63.0,30.10,WNW,291,0.0,0.0,89,0.01,,,0.01,weatherlink.com 1.10,2013-06-02 04:02:00,
2013-06-02 00:17:00,66.2,62.0,30.09,WNW,291,0.0,0.0,87,0.01,,,0.01,weatherlink.com 1.10,2013-06-02 04:17:00,
2013-06-02 00:32:00,66.3,63.0,30.09,WNW,291,0.0,0.0,90,0.01,,,0.01,weatherlink.com 1.10,2013-06-02 04:32:00,
2013-06-02 00:47:00,65.9,63.0,30.08,WNW,291,0.0,0.0,91,0.03,,,0.03,weatherlink.com 1.10,2013-06-02 04:47:00,
2013-06-02 01:03:00,64.9,63.0,30.05,WNW,291,0.0,0.0,92,0.04,,,0.05,weatherlink.com 1.10,2013-06-02 05:03:00,
2013-06-02 01:18:00,64.5,63.0,30.04,WNW,291,0.0,0.0,94,0.06,,,0.07,weatherlink.com 1.10,2013-06-02 05:18:00,
2013-06-02 01:33:00,64.7,63.0,30.03,WNW,291,0.0,0.0,95,0.06,,,0.07,weatherlink.com 1.10,2013-06-02 05:33:00,
2013-06-02 01:48:00,64.7,63.0,30.04,WNW,291,0.0,0.0,95,0.04,,,0.07,weatherlink.com 1.10,2013-06-02 05:48:00,
2013-06-02 02:18:00,65.2,64.0,30.05,WNW,291,0.0,0.0,94,0.00,,,0.07,weatherlink.com 1.10,2013-06-02 06:18:00,
2013-06-02 02:33:00,65.2,64.0,30.05,WNW,291,0.0,0.0,95,0.00,,,0.07,weatherlink.com 1.10,2013-06-02 06:33:00,
2013-06-02 02:48:00,65.2,64.0,30.05,WNW,291,0.0,0.0,95,0.00,,,0.07,weatherlink.com 1.10,2013-06-02 06:48:00,
2013-06-02 03:03:00,65.3,64.0,30.05,WNW,291,0.0,0.0,96,0.00,,,0.07,weatherlink.com 1.10,2013-06-02 07:03:00,
2013-06-02 03:18:00,65.4,64.0,30.04,WNW,291,0.0,0.0,96,0.00,,,0.07,weatherlink.com 1.10,2013-06-02 07:18:00,
2013-06-02 03:33:00,65.4,64.0,30.04,WNW,291,0.0,0.0,96,0.00,,,0.07,weatherlink.com 1.10,2013-06-02 07:33:00,
2013-06-02 03:48:00,65.2,64.0,30.03,WNW,291,0.0,0.0,96,0.00,,,0.07,weatherlink.com 1.10,2013-06-02 07:48:00,
2013-06-02 04:03:00,65.2,64.0,30.03,WNW,291,0.0,0.0,96,0.00,,,0.07,weatherlink.com 1.10,2013-06-02 08:03:00,
2013-06-02 04:18:00,65.1,64.0,30.03,WNW,291,0.0,0.0,96,0.00,,,0.07,weatherlink.com 1.10,2013-06-02 08:18:00,
2013-06-02 04:33:00,65.0,64.0,30.02,WNW,293,0.0,0.0,96,0.00,,,0.07,weatherlink.com 1.10,2013-06-02 08:33:00,
2013-06-02 04:48:00,65.0,64.0,30.02,WNW,293,0.0,0.0,96,0.00,,,0.07,weatherlink.com 1.10,2013-06-02 08:48:00,
2013-06-02 05:03:00,65.0,64.0,30.02,WNW,293,0.0,0.0,96,0.00,,,0.07,weatherlink.com 1.10,2013-06-02 09:03:00,
2013-06-02 05:18:00,64.9,64.0,30.02,WNW,293,0.0,0.0,96,0.00,,,0.07,weatherlink.com 1.10,2013-06-02 09:18:00,
2013-06-02 05:33:00,64.8,64.0,30.02,WNW,293,0.0,0.0,96,0.00,,,0.07,weatherlink.com 1.10,2013-06-02 09:33:00,
2013-06-02 05:48:00,64.5,63.0,30.02,WNW,286,0.0,0.0,96,0.00,,,0.07,weatherlink.com 1.10,2013-06-02 09:48:00,
2013-06-02 06:03:00,64.2,63.0,30.02,WNW,286,0.0,0.0,96,0.02,,,0.09,weatherlink.com 1.10,2013-06-02 10:03:00,
2013-06-02 06:18:00,63.8,63.0,30.03,WNW,286,0.0,0.0,96,0.02,,,0.09,weatherlink.com 1.10,2013-06-02 10:18:00,
2013-06-02 06:33:00,63.5,63.0,30.03,WNW,286,0.0,0.0,97,0.05,,,0.12,weatherlink.com 1.10,2013-06-02 10:33:00,
2013-06-02 06:48:00,63.4,63.0,30.04,WNW,286,0.0,0.0,97,0.09,,,0.16,weatherlink.com 1.10,2013-06-02 10:48:00,
2013-06-02 07:03:00,63.4,63.0,30.04,WNW,286,0.0,0.0,97,0.10,,,0.19,weatherlink.com 1.10,2013-06-02 11:03:00,
2013-06-02 07:18:00,63.5,63.0,30.04,WNW,286,0.0,0.0,98,0.12,,,0.21,weatherlink.com 1.10,2013-06-02 11:18:00,
2013-06-02 07:33:00,63.8,63.0,30.04,WNW,286,0.0,0.0,98,0.08,,,0.21,weatherlink.com 1.10,2013-06-02 11:33:00,
2013-06-02 07:48:00,63.9,63.0,30.04,WNW,286,0.0,0.0,98,0.06,,,0.22,weatherlink.com 1.10,2013-06-02 11:48:00,
2013-06-02 08:03:00,63.9,63.0,30.04,WNW,286,0.0,0.0,98,0.05,,,0.24,weatherlink.com 1.10,2013-06-02 12:03:00,
2013-06-02 08:18:00,64.0,64.0,30.04,WNW,286,0.0,0.0,98,0.05,,,0.26,weatherlink.com 1.10,2013-06-02 12:18:00,
2013-06-02 08:33:00,64.0,64.0,30.04,WNW,286,0.0,0.0,98,0.07,,,0.28,weatherlink.com 1.10,2013-06-02 12:33:00,
2013-06-02 08:48:00,64.1,64.0,30.03,WNW,286,0.0,0.0,98,0.08,,,0.30,weatherlink.com 1.10,2013-06-02 12:48:00,
2013-06-02 09:03:00,64.0,64.0,30.02,WNW,286,0.0,0.0,98,0.08,,,0.32,weatherlink.com 1.10,2013-06-02 13:03:00,
2013-06-02 09:18:00,64.1,64.0,30.02,WNW,286,0.0,0.0,98,0.08,,,0.34,weatherlink.com 1.10,2013-06-02 13:18:00,
2013-06-02 09:33:00,64.2,64.0,30.02,WNW,286,0.0,0.0,98,0.08,,,0.36,weatherlink.com 1.10,2013-06-02 13:33:00,
2013-06-02 09:48:00,64.4,64.0,30.03,WNW,286,0.0,0.0,98,0.08,,,0.38,weatherlink.com 1.10,2013-06-02 13:48:00,
2013-06-02 10:03:00,64.7,64.0,30.02,WNW,286,0.0,0.0,98,0.07,,,0.39,weatherlink.com 1.10,2013-06-02 14:03:00,
2013-06-02 10:18:00,65.0,65.0,30.02,WNW,286,0.0,0.0,98,0.07,,,0.41,weatherlink.com 1.10,2013-06-02 14:18:00,
2013-06-02 10:33:00,65.2,65.0,30.03,WNW,286,0.0,0.0,98,0.06,,,0.42,weatherlink.com 1.10,2013-06-02 14:33:00,
2013-06-02 10:48:00,65.4,65.0,30.02,WNW,286,0.0,0.0,98,0.05,,,0.43,weatherlink.com 1.10,2013-06-02 14:48:00,
2013-06-02 11:03:00,65.5,65.0,30.02,WNW,286,0.0,0.0,98,0.05,,,0.44,weatherlink.com 1.10,2013-06-02 15:03:00,
2013-06-02 11:18:00,65.5,65.0,30.02,WNW,286,0.0,0.0,98,0.03,,,0.44,weatherlink.com 1.10,2013-06-02 15:18:00,
2013-06-02 11:33:00,65.8,65.0,30.02,WNW,286,0.0,0.0,98,0.02,,,0.44,weatherlink.com 1.10,2013-06-02 15:33:00,
2013-06-02 11:48:00,65.9,65.0,30.02,WNW,286,0.0,0.0,98,0.01,,,0.44,weatherlink.com 1.10,2013-06-02 15:48:00,
2013-06-02 12:03:00,66.0,66.0,30.02,WNW,286,0.0,0.0,98,0.00,,,0.44,weatherlink.com 1.10,2013-06-02 16:03:00,
2013-06-02 12:18:00,66.2,66.0,30.02,WNW,286,0.0,0.0,98,0.01,,,0.45,weatherlink.com 1.10,2013-06-02 16:18:00,
2013-06-02 12:33:00,66.5,66.0,30.02,WNW,286,0.0,0.0,98,0.02,,,0.46,weatherlink.com 1.10,2013-06-02 16:33:00,
2013-06-02 12:48:00,67.0,67.0,30.02,WNW,286,0.0,0.0,98,0.02,,,0.46,weatherlink.com 1.10,2013-06-02 16:48:00,
2013-06-02 13:03:00,67.2,67.0,30.01,WNW,286,0.0,0.0,98,0.02,,,0.46,weatherlink.com 1.10,2013-06-02 17:03:00,
2013-06-02 13:18:00,68.0,68.0,30.01,WNW,286,0.0,0.0,98,0.00,,,0.46,weatherlink.com 1.10,2013-06-02 17:18:00,
2013-06-02 13:33:00,68.5,67.0,30.02,WNW,286,0.0,0.0,96,0.00,,,0.46,weatherlink.com 1.10,2013-06-02 17:33:00,
2013-06-02 13:48:00,68.5,67.0,30.01,WNW,286,0.0,0.0,95,0.01,,,0.47,weatherlink.com 1.10,2013-06-02 17:48:00,
2013-06-02 14:03:00,68.9,68.0,30.01,WNW,286,0.0,0.0,96,0.01,,,0.47,weatherlink.com 1.10,2013-06-02 18:03:00,
2013-06-02 14:18:00,69.3,68.0,29.99,WNW,286,0.0,0.0,96,0.01,,,0.47,weatherlink.com 1.10,2013-06-02 18:18:00,
2013-06-02 14:33:00,70.2,69.0,29.99,WNW,286,0.0,0.0,95,0.01,,,0.47,weatherlink.com 1.10,2013-06-02 18:33:00,
2013-06-02 14:49:00,69.9,68.0,29.98,WNW,285,0.0,0.0,92,0.00,,,0.47,weatherlink.com 1.10,2013-06-02 18:49:00,
2013-06-02 15:19:00,68.8,65.0,29.98,SSW,210,0.0,0.0,87,0.01,,,0.48,weatherlink.com 1.10,2013-06-02 19:19:00,
2013-06-02 15:34:00,67.1,65.0,29.98,South,179,0.0,0.0,93,0.08,,,0.55,weatherlink.com 1.10,2013-06-02 19:34:00,
2013-06-02 15:49:00,66.1,64.0,30.00,SSE,153,0.0,0.0,94,0.17,,,0.64,weatherlink.com 1.10,2013-06-02 19:49:00,
2013-06-02 16:04:00,65.7,65.0,29.98,SSE,153,0.0,0.0,96,0.24,,,0.71,weatherlink.com 1.10,2013-06-02 20:04:00,
2013-06-02 16:19:00,65.1,64.0,29.99,WSW,257,0.0,0.0,96,0.29,,,0.77,weatherlink.com 1.10,2013-06-02 20:19:00,
2013-06-02 16:34:00,64.0,63.0,29.98,WSW,250,0.0,0.0,95,0.27,,,0.83,weatherlink.com 1.10,2013-06-02 20:34:00,
2013-06-02 16:49:00,63.8,63.0,29.98,SW,230,0.0,0.0,96,0.24,,,0.88,weatherlink.com 1.10,2013-06-02 20:49:00,
2013-06-02 17:04:00,64.0,63.0,29.95,SW,230,0.0,0.0,97,0.22,,,0.93,weatherlink.com 1.10,2013-06-02 21:04:00,
2013-06-02 17:19:00,64.5,64.0,29.97,SW,230,0.0,0.0,98,0.20,,,0.97,weatherlink.com 1.10,2013-06-02 21:19:00,
2013-06-02 17:34:00,65.0,65.0,29.97,SW,230,0.0,0.0,98,0.17,,,1.00,weatherlink.com 1.10,2013-06-02 21:34:00,
2013-06-02 17:49:00,65.0,64.0,29.98,SW,230,0.0,0.0,97,0.15,,,1.03,weatherlink.com 1.10,2013-06-02 21:49:00,
2013-06-02 18:04:00,64.7,64.0,29.98,SW,221,0.0,0.0,97,0.12,,,1.05,weatherlink.com 1.10,2013-06-02 22:04:00,
2013-06-02 18:19:00,64.3,64.0,29.98,SW,221,0.0,0.0,97,0.09,,,1.06,weatherlink.com 1.10,2013-06-02 22:19:00,
2013-06-02 18:34:00,64.3,64.0,29.98,SW,221,0.0,0.0,97,0.07,,,1.07,weatherlink.com 1.10,2013-06-02 22:34:00,
2013-06-02 18:49:00,64.1,63.0,29.98,SW,221,0.0,0.0,97,0.04,,,1.07,weatherlink.com 1.10,2013-06-02 22:49:00,
2013-06-02 19:04:00,64.0,64.0,29.98,SW,221,0.0,0.0,98,0.02,,,1.07,weatherlink.com 1.10,2013-06-02 23:04:00,
2013-06-02 19:19:00,64.0,63.0,29.98,SW,221,0.0,0.0,97,0.01,,,1.07,weatherlink.com 1.10,2013-06-02 23:19:00,
2013-06-02 19:34:00,63.8,63.0,29.98,SW,221,0.0,0.0,97,0.00,,,1.07,weatherlink.com 1.10,2013-06-02 23:34:00,
2013-06-02 19:49:00,63.8,63.0,29.98,SW,221,0.0,0.0,97,0.00,,,1.07,weatherlink.com 1.10,2013-06-02 23:49:00,
2013-06-02 20:04:00,63.8,63.0,29.98,SW,221,0.0,0.0,98,0.00,,,1.07,weatherlink.com 1.10,2013-06-03 00:04:00,
2013-06-02 20:19:00,63.9,63.0,29.99,SW,221,0.0,0.0,98,0.00,,,1.07,weatherlink.com 1.10,2013-06-03 00:19:00,
2013-06-02 20:34:00,63.9,63.0,29.98,SW,221,0.0,0.0,98,0.00,,,1.07,weatherlink.com 1.10,2013-06-03 00:34:00,
2013-06-02 20:49:00,63.9,63.0,29.99,SW,236,0.0,0.0,98,0.04,,,1.11,weatherlink.com 1.10,2013-06-03 00:49:00,
2013-06-02 21:04:00,64.0,64.0,29.98,SW,233,0.0,0.0,98,0.06,,,1.13,weatherlink.com 1.10,2013-06-03 01:04:00,
2013-06-02 21:19:00,63.9,63.0,29.98,SW,233,0.0,0.0,98,0.08,,,1.15,weatherlink.com 1.10,2013-06-03 01:19:00,
2013-06-02 21:34:00,63.8,63.0,29.98,SW,233,0.0,0.0,98,0.07,,,1.15,weatherlink.com 1.10,2013-06-03 01:34:00,
2013-06-02 21:49:00,63.7,63.0,29.98,SW,233,0.0,0.0,98,0.04,,,1.15,weatherlink.com 1.10,2013-06-03 01:49:00,
2013-06-02 22:04:00,63.6,63.0,29.97,SW,233,0.0,0.0,98,0.02,,,1.15,weatherlink.com 1.10,2013-06-03 02:04:00,
2013-06-02 22:19:00,63.5,63.0,29.97,SW,233,0.0,0.0,98,0.00,,,1.15,weatherlink.com 1.10,2013-06-03 02:19:00,
2013-06-02 22:34:00,63.2,63.0,29.98,SW,233,0.0,0.0,98,0.00,,,1.15,weatherlink.com 1.10,2013-06-03 02:34:00,
2013-06-02 22:49:00,63.1,63.0,29.98,SW,233,0.0,0.0,98,0.00,,,1.15,weatherlink.com 1.10,2013-06-03 02:49:00,
2013-06-02 23:04:00,63.1,63.0,29.98,SW,233,0.0,0.0,98,0.00,,,1.15,weatherlink.com 1.10,2013-06-03 03:04:00,
2013-06-02 23:19:00,63.0,63.0,29.98,SW,233,0.0,0.0,98,0.00,,,1.15,weatherlink.com 1.10,2013-06-03 03:19:00,
2013-06-02 23:34:00,62.8,62.0,29.98,SW,233,0.0,0.0,98,0.00,,,1.15,weatherlink.com 1.10,2013-06-03 03:34:00,
2013-06-02 23:49:00,62.7,62.0,29.98,SW,233,0.0,0.0,98,0.00,,,1.15,weatherlink.com 1.10,2013-06-03 03:49:00,